Paganella, Italy

5:31 AM CEST on May 28, 2017 (GMT +0200)
Paganella

Weather History for LIVP - November, 2012

Change the Weather History Date:

Friday, November 9, 2012

  Actual Average Record
Temperature  
Mean Temperature 36 °F -  
Max Temperature 41 °F 33 °F 50 °F (1998)
Min Temperature 31 °F 24 °F 14 °F (2001)
Degree Days  
Heating Degree Days 29    
Moisture  
Dew Point 19 °F    
Average Humidity 48    
Maximum Humidity 70    
Minimum Humidity 27    
Precipitation  
Precipitation 0.00 in 0.06 in - ()
Sea Level Pressure  
Sea Level Pressure 30.07 in    
Wind  
Wind Speed 9 mph ()    
Max Wind Speed 16 mph    
Max Gust Speed -    
Visibility 19.0 miles    
Events      
Averages and records for this station are not official NWS values.
T = Trace of Precipitation, MM = Missing Value Source: Averaged Metar Reports

Daily Weather History Graph

Daily Weather History Graph

Search for Another Location

Airport or City:

Trip Planner

Search our weather history database for the weather conditions in past years. The results will help you decide how hot, cold, wet, or windy it might be!

Date:

Astronomy

Nov. 09, 2012 Rise Set
Actual Time 7:08 AM CET 4:50 PM CET
Civil Twilight 6:36 AM CET 5:22 PM CET
Nautical Twilight 6:00 AM CET 5:58 PM CET
Astronomical Twilight 5:25 AM CET 6:33 PM CET
Moon 1:33 AM CET (11/9) 2:08 PM CET (11/9)
Length of Visible Light 10h 45m
Length of Day
9h 41m
Waning Crescent, 25% of the Moon is Illuminated
Nov 9
Waning Crescent
Nov 13
New
Nov 20
First Quarter
Nov 28
Full
Dec 6
Last Quarter

Hourly Weather History & Observations

Time (CET) Temp. Windchill Dew Point Humidity Pressure Visibility Wind Dir Wind Speed Gust Speed Precip Events Conditions
12:55 AM 32.0 °F 24.2 °F 23.0 °F 69% 30.06 in - North 9.2 mph - N/A   Clear
1:00 AM 33 °F - 22 °F 53%  in 19 mi North 9.2 mph - -   Scattered Clouds
1:55 AM 32.0 °F 22.1 °F 21.2 °F 64% 30.06 in - North 13.8 mph - N/A   Clear
2:55 AM 33.8 °F 24.8 °F 19.4 °F 56% 30.06 in - North 12.7 mph - N/A   Clear
3:55 AM 33.8 °F 25.3 °F 21.2 °F 60% 30.04 in - North 11.5 mph - N/A   Clear
4:00 AM 34 °F - 21 °F 45%  in 19 mi North 11.5 mph - -   Scattered Clouds
4:55 AM 37.4 °F 29.3 °F 15.8 °F 41% 30.04 in - North 12.7 mph - N/A   Clear
5:55 AM 37.4 °F 30.3 °F 14.0 °F 38% 30.04 in - North 10.4 mph - N/A   Clear
6:55 AM 35.6 °F 25.9 °F 15.8 °F 44% 30.04 in - North 16.1 mph - N/A   Clear
7:00 AM 36 °F - 16 °F 30%  in 47 mi North 16.1 mph - -  
7:55 AM 37.4 °F 29.8 °F 17.6 °F 45% 30.06 in - NNE 11.5 mph - N/A   Clear
8:55 AM 37.4 °F 30.3 °F 17.6 °F 45% 30.06 in - NE 10.4 mph - N/A   Clear
9:55 AM 37.4 °F 32.1 °F 17.6 °F 45% 30.09 in - NE 6.9 mph - N/A   Clear
10:00 AM 37 °F - 17 °F 30%  in 47 mi NE 6.9 mph - -   Clear
10:55 AM 39.2 °F 35.0 °F 17.6 °F 42% 30.09 in - NNE 5.8 mph - N/A   Clear
11:55 AM 39.2 °F 37.0 °F 17.6 °F 42% 30.09 in - Variable 3.5 mph - N/A   Clear
12:55 PM 41.0 °F 39.0 °F 19.4 °F 42% 30.09 in - Variable 3.5 mph - N/A   Clear
1:00 PM 41 °F - 20 °F 30%  in 44 mi 3.5 mph - -   Clear
1:55 PM 41.0 °F 37.1 °F 19.4 °F 42% 30.09 in - SSW 5.8 mph - N/A   Clear
2:55 PM 41.0 °F 36.4 °F 19.4 °F 42% 30.06 in - SSW 6.9 mph - N/A   Clear
3:55 PM 41.0 °F 35.2 °F 17.6 °F 39% 30.06 in - SSW 9.2 mph - N/A   Clear
4:00 PM 41 °F - 18 °F 27%  in 37 mi SSW 9.2 mph - -   Clear
4:55 PM 37.4 °F 30.3 °F 19.4 °F 48% 30.09 in - South 10.4 mph - N/A   Clear
5:55 PM 37.4 °F 28.9 °F 21.2 °F 52% 30.09 in - SSW 13.8 mph - N/A   Clear
8:55 PM 35.6 °F 26.6 °F 21.2 °F 56% 30.06 in - South 13.8 mph - N/A   Clear
9:55 PM 33.8 °F 25.3 °F 23.0 °F 65% 30.06 in - South 11.5 mph - N/A   Clear
10:00 PM 34 °F - 24 °F 55%  in 19 mi South 11.5 mph - -   Clear
10:55 PM 33.8 °F 25.3 °F 24.8 °F 70% 30.06 in - South 11.5 mph - N/A   Clear
11:55 PM 33.8 °F 27.0 °F 23.0 °F 65% 30.06 in - South 8.1 mph - N/A   Clear